• In Uzbekistan
  • List of Countries
  • For 7 days
  • Water Temperature
  • Satellite Maps
  • Weather Map
  • Weather Widgets
  • user-avatar
    Login

    Hourly Weather Andzhan

    Today, 22 August, Wednesday

    Time Temperature Precipitation Wind Pressure Humidity
    00:00 +26°C° 0.1 mm 1 mps 719 mmHg 49%
    01:00 +25°C° 0.1 mm 1 mps 718 mmHg 51%
    02:00 +24°C° 0.1 mm 1 mps 718 mmHg 53%
    03:00 +24°C° 0 mm 1 mps 718 mmHg 55%
    04:00 +23°C° 0 mm 1 mps 718 mmHg 56%
    05:00 +23°C° 0 mm 1 mps 718 mmHg 58%
    06:00 +24°C° 0.6 mm 1 mps 718 mmHg 58%
    07:00 +25°C° 0.6 mm 1 mps 718 mmHg 57%
    08:00 +26°C° 0.6 mm 1 mps 718 mmHg 56%
    09:00 +27°C° 0.1 mm 1 mps 718 mmHg 51%
    10:00 +29°C° 0.1 mm 2 mps 718 mmHg 46%
    11:00 +30°C° 0.1 mm 2 mps 718 mmHg 41%
    12:00 +31°C° 0 mm 2 mps 718 mmHg 38%
    13:00 +32°C° 0 mm 2 mps 717 mmHg 35%
    14:00 +34°C° 0 mm 2 mps 717 mmHg 31%
    15:00 +35°C° 0 mm 2 mps 717 mmHg 30%
    16:00 +35°C° 0 mm 2 mps 717 mmHg 29%
    17:00 +35°C° 0 mm 2 mps 717 mmHg 28%
    18:00 +32°C° 0 mm 2 mps 717 mmHg 32%
    19:00 +30°C° 0 mm 2 mps 718 mmHg 35%
    20:00 +28°C° 0 mm 3 mps 718 mmHg 39%
    21:00 +27°C° 0 mm 2 mps 718 mmHg 40%
    22:00 +27°C° 0 mm 2 mps 718 mmHg 42%
    23:00 +26°C° 0 mm 2 mps 718 mmHg 43%

    Tomorrow, 23 August, Thursday

    Time Temperature Precipitation Wind Pressure Humidity
    00:00 +26°C° 0 mm 2 mps 718 mmHg 44%
    01:00 +25°C° 0 mm 2 mps 718 mmHg 44%
    02:00 +25°C° 0 mm 2 mps 718 mmHg 45%
    03:00 +24°C° 0 mm 2 mps 717 mmHg 45%
    04:00 +24°C° 0 mm 2 mps 717 mmHg 46%
    05:00 +24°C° 0 mm 2 mps 717 mmHg 47%
    06:00 +25°C° 0 mm 2 mps 717 mmHg 43%
    07:00 +27°C° 0 mm 1 mps 718 mmHg 40%
    08:00 +28°C° 0 mm 1 mps 718 mmHg 36%
    09:00 +30°C° 0 mm 1 mps 717 mmHg 33%
    10:00 +31°C° 0 mm 1 mps 717 mmHg 30%
    11:00 +33°C° 0 mm 1 mps 717 mmHg 28%
    12:00 +35°C° 0 mm 2 mps 717 mmHg 26%
    13:00 +36°C° 0 mm 2 mps 716 mmHg 25%
    14:00 +36°C° 0 mm 2 mps 716 mmHg 24%
    15:00 +36°C° 0 mm 2 mps 716 mmHg 24%
    16:00 +36°C° 0 mm 2 mps 716 mmHg 23%
    17:00 +36°C° 0 mm 2 mps 716 mmHg 23%
    18:00 +34°C° 0 mm 2 mps 716 mmHg 27%
    19:00 +31°C° 0 mm 3 mps 717 mmHg 30%
    20:00 +29°C° 0 mm 3 mps 717 mmHg 33%
    21:00 +28°C° 0 mm 3 mps 717 mmHg 35%
    22:00 +28°C° 0 mm 2 mps 717 mmHg 36%
    23:00 +27°C° 0 mm 2 mps 717 mmHg 38%

    Day after tomorrow, 24 August, Friday

    Time Temperature Precipitation Wind Pressure Humidity
    00:00 +26°C° 0 mm 2 mps 717 mmHg 39%
    01:00 +26°C° 0 mm 2 mps 717 mmHg 39%
    02:00 +25°C° 0 mm 2 mps 716 mmHg 40%
    03:00 +25°C° 0.1 mm 2 mps 716 mmHg 41%
    04:00 +24°C° 0.1 mm 2 mps 716 mmHg 42%
    05:00 +24°C° 0.1 mm 2 mps 717 mmHg 43%
    06:00 +25°C° 0.1 mm 2 mps 717 mmHg 40%
    07:00 +27°C° 0.1 mm 2 mps 717 mmHg 38%
    08:00 +28°C° 0.1 mm 2 mps 717 mmHg 35%
    09:00 +30°C° 0 mm 2 mps 717 mmHg 31%
    10:00 +31°C° 0 mm 2 mps 717 mmHg 27%
    11:00 +34°C° 0 mm 2 mps 717 mmHg 23%
    12:00 +35°C° 0 mm 3 mps 717 mmHg 21%
    13:00 +36°C° 0 mm 3 mps 717 mmHg 19%
    14:00 +37°C° 0 mm 4 mps 717 mmHg 17%
    15:00 +37°C° 0 mm 4 mps 717 mmHg 17%
    16:00 +36°C° 0 mm 4 mps 717 mmHg 16%
    17:00 +36°C° 0 mm 4 mps 717 mmHg 16%
    18:00 +34°C° 0 mm 4 mps 718 mmHg 18%
    19:00 +32°C° 0 mm 4 mps 718 mmHg 20%
    20:00 +29°C° 0 mm 4 mps 718 mmHg 23%
    21:00 +28°C° 0 mm 3 mps 718 mmHg 24%
    22:00 +27°C° 0 mm 3 mps 718 mmHg 25%
    23:00 +26°C° 0 mm 3 mps 718 mmHg 26%

    25 August, Saturday

    Time Temperature Precipitation Wind Pressure Humidity
    00:00 +25°C° 0 mm 3 mps 718 mmHg 26%
    01:00 +25°C° 0 mm 3 mps 718 mmHg 27%
    02:00 +24°C° 0 mm 3 mps 718 mmHg 28%
    03:00 +24°C° 0 mm 3 mps 718 mmHg 28%
    04:00 +22°C° 0 mm 3 mps 718 mmHg 29%
    05:00 +23°C° 0 mm 2 mps 717 mmHg 29%
    06:00 +24°C° 0 mm 2 mps 718 mmHg 27%
    07:00 +26°C° 0 mm 2 mps 718 mmHg 25%
    08:00 +28°C° 0 mm 2 mps 718 mmHg 23%
    09:00 +30°C° 0 mm 2 mps 718 mmHg 21%
    10:00 +31°C° 0 mm 2 mps 717 mmHg 18%
    11:00 +34°C° 0 mm 2 mps 717 mmHg 16%
    12:00 +35°C° 0 mm 2 mps 717 mmHg 15%
    13:00 +35°C° 0 mm 2 mps 716 mmHg 14%
    14:00 +36°C° 0 mm 2 mps 716 mmHg 13%
    15:00 +36°C° 0 mm 2 mps 716 mmHg 13%
    16:00 +36°C° 0 mm 2 mps 716 mmHg 13%
    17:00 +36°C° 0 mm 2 mps 716 mmHg 13%
    18:00 +32°C° 0 mm 2 mps 716 mmHg 15%
    19:00 +30°C° 0 mm 3 mps 716 mmHg 17%
    20:00 +27°C° 0 mm 3 mps 716 mmHg 20%
    21:00 +27°C° 0 mm 3 mps 716 mmHg 21%
    22:00 +26°C° 0 mm 3 mps 716 mmHg 22%
    23:00 +25°C° 0 mm 3 mps 716 mmHg 23%

    26 August, Sunday

    Time Temperature Precipitation Wind Pressure Humidity
    00:00 +25°C° 0 mm 3 mps 715 mmHg 24%
    01:00 +24°C° 0 mm 3 mps 715 mmHg 24%
    02:00 +24°C° 0 mm 3 mps 715 mmHg 25%
    03:00 +23°C° 0 mm 2 mps 715 mmHg 25%
    04:00 +23°C° 0 mm 2 mps 715 mmHg 26%
    05:00 +21°C° 0 mm 2 mps 715 mmHg 27%
    06:00 +24°C° 0 mm 2 mps 715 mmHg 25%
    07:00 +26°C° 0 mm 2 mps 715 mmHg 23%
    08:00 +28°C° 0 mm 2 mps 715 mmHg 22%
    09:00 +29°C° 0 mm 2 mps 715 mmHg 20%
    10:00 +31°C° 0 mm 2 mps 714 mmHg 18%
    11:00 +32°C° 0 mm 2 mps 714 mmHg 16%
    12:00 +34°C° 0 mm 2 mps 714 mmHg 16%
    13:00 +35°C° 0 mm 2 mps 714 mmHg 15%
    14:00 +36°C° 0 mm 3 mps 713 mmHg 14%
    15:00 +36°C° 0 mm 3 mps 713 mmHg 14%
    16:00 +36°C° 0 mm 3 mps 714 mmHg 14%
    17:00 +36°C° 0 mm 3 mps 714 mmHg 14%
    18:00 +33°C° 0 mm 3 mps 714 mmHg 17%
    19:00 +30°C° 0 mm 3 mps 715 mmHg 19%
    20:00 +27°C° 0 mm 3 mps 715 mmHg 22%
    21:00 +27°C° 0 mm 3 mps 715 mmHg 23%
    22:00 +26°C° 0 mm 3 mps 715 mmHg 24%
    23:00 +25°C° 0 mm 3 mps 715 mmHg 26%

    27 August, Monday

    Time Temperature Precipitation Wind Pressure Humidity
    00:00 +24°C° 0 mm 3 mps 716 mmHg 27%
    01:00 +24°C° 0 mm 3 mps 716 mmHg 28%
    02:00 +22°C° 0 mm 3 mps 716 mmHg 29%
    03:00 +22°C° 0 mm 3 mps 716 mmHg 30%
    04:00 +21°C° 0 mm 2 mps 716 mmHg 30%
    05:00 +21°C° 0 mm 2 mps 716 mmHg 31%
    06:00 +24°C° 0 mm 2 mps 717 mmHg 29%
    07:00 +26°C° 0 mm 2 mps 717 mmHg 26%
    08:00 +27°C° 0 mm 2 mps 717 mmHg 24%
    09:00 +29°C° 0 mm 2 mps 717 mmHg 22%
    10:00 +31°C° 0 mm 2 mps 717 mmHg 20%
    11:00 +32°C° 0 mm 2 mps 717 mmHg 18%
    12:00 +34°C° 0 mm 2 mps 717 mmHg 17%
    13:00 +35°C° 0 mm 2 mps 716 mmHg 16%
    14:00 +36°C° 0 mm 2 mps 716 mmHg 15%
    15:00 +35°C° 0 mm 2 mps 716 mmHg 14%
    16:00 +35°C° 0 mm 2 mps 716 mmHg 14%
    17:00 +35°C° 0 mm 2 mps 716 mmHg 14%
    18:00 +32°C° 0 mm 2 mps 717 mmHg 17%
    19:00 +30°C° 0 mm 2 mps 717 mmHg 19%
    20:00 +27°C° 0 mm 3 mps 717 mmHg 22%
    21:00 +26°C° 0 mm 3 mps 717 mmHg 23%
    22:00 +26°C° 0 mm 3 mps 717 mmHg 25%
    23:00 +25°C° 0 mm 3 mps 717 mmHg 26%
    Show more